Location: London
(51.5166°N, 0.1046°W)
Time: 15:45:34
(UTC+01:00)

ISS - Visible Passes

Search period start: 26 September 2017 00:00
Search period end: 06 October 2017 00:00
Orbit: 401 x 407 km, 51.6° (Epoch: 26 September)

Date Brightness Start Highest point End Pass type
(mag) Time Alt. Az. Time Alt. Az. Time Alt. Az.
26 Sep -1.5 21:01:41 10° SW 21:02:32 16° SSW 21:02:32 16° SSW visible
27 Sep -2.5 20:09:48 10° SSW 20:12:29 24° SSE 20:12:41 24° SE visible
28 Sep -1.9 19:18:16 10° S 19:20:20 16° SE 19:22:24 10° ESE visible
28 Sep -2.8 20:53:04 10° WSW 20:55:20 38° SW 20:55:20 38° SW visible
29 Sep -3.2 20:00:54 10° SW 20:04:00 39° SSE 20:05:12 27° ESE visible
29 Sep -1.1 21:37:02 10° W 21:37:51 16° W 21:37:51 16° W visible
30 Sep -2.6 19:08:54 10° SSW 19:11:43 27° SSE 19:14:34 10° E visible
30 Sep -3.7 20:44:38 10° WSW 20:47:36 68° SW 20:47:36 68° SW visible
01 Oct -3.7 19:52:18 10° WSW 19:55:32 62° SSE 19:57:16 25° E visible
01 Oct -1.3 21:28:42 10° W 21:29:55 21° W 21:29:55 21° W visible
02 Oct -3.9 20:36:16 10° W 20:39:31 87° NW 20:39:31 87° NW visible
03 Oct -3.9 19:43:49 10° WSW 19:47:06 83° S 19:49:05 22° E visible
03 Oct -1.5 21:20:19 10° W 21:21:43 23° W 21:21:43 23° W visible
04 Oct -4.0 20:27:51 10° W 20:31:09 87° N 20:31:15 83° ENE visible
05 Oct -3.9 19:35:22 10° W 19:38:40 86° N 19:40:45 21° E visible
05 Oct -1.6 21:11:52 10° W 21:13:23 25° W 21:13:23 25° W visible
